Cortland, IL

6:51 AM CST on December 04, 2016 (GMT -0600)
De Kalb Taylor Municipal

Weather History for KDKB - February, 2014

Change the Weather History Date:

Thursday, February 6, 2014

  Actual Average (KARR) Record (KARR)
Temperature  
Mean Temperature -2 °F 22 °F  
Max Temperature 2 °F 31 °F 46 °F (2005)
Min Temperature -7 °F 14 °F -14 °F (2014)
Degree Days  
Heating Degree Days 68 43  
Month to date heating degree days 260  
Since 1 July heating degree days 4277  
Cooling Degree Days 0 0  
Month to date cooling degree days 0  
Year to date cooling degree days 0  
Moisture  
Dew Point -9 °F    
Average Humidity 73    
Maximum Humidity 81    
Minimum Humidity 63    
Precipitation  
Precipitation 0.00 in 0.05 in 0.27 in (2008)
Month to date precipitation 0.25  
Year to date precipitation 1.72  
Sea Level Pressure  
Sea Level Pressure 30.38 in    
Wind  
Wind Speed 13 mph (West)    
Max Wind Speed 21 mph    
Max Gust Speed 26 mph    
Visibility 9 miles    
Events Snow    
T = Trace of Precipitation, MM = Missing Value Source: NWS Daily Summary

Daily Weather History Graph

Daily Weather History Graph

Search for Another Location

Airport or City:

Trip Planner

Search our weather history database for the weather conditions in past years. The results will help you decide how hot, cold, wet, or windy it might be!

Date:

Astronomy

Feb. 06, 2014 Rise Set
Actual Time 7:01 AM CST 5:16 PM CST
Civil Twilight 6:32 AM CST 5:45 PM CST
Nautical Twilight 5:59 AM CST 6:18 PM CST
Astronomical Twilight 5:27 AM CST 6:51 PM CST
Moon 10:47 AM CST (2/6) 12:17 AM CST (2/6)
Length of Visible Light 11h 12m
Length of Day
10h 14m
Waxing Crescent, 49% of the Moon is Illuminated
Feb 6
Waxing Crescent
Feb 6
First Quarter
Feb 14
Full
Feb 22
Last Quarter
Mar 1
New

Hourly Weather History & Observations

Time (CST) Temp. Windchill Dew Point Humidity Pressure Visibility Wind Dir Wind Speed Gust Speed Precip Events Conditions
12:15 AM 2.1 °F -15.2 °F -2.9 °F 79% 30.42 in 10.0 mi West 12.7 mph - N/A   Mostly Cloudy
12:35 AM 1.8 °F -16.4 °F -3.3 °F 79% 30.41 in 10.0 mi West 13.8 mph - N/A   Mostly Cloudy
12:55 AM 1.4 °F -16.9 °F -3.8 °F 79% 30.40 in 10.0 mi West 13.8 mph - N/A   Scattered Clouds
1:15 AM 0.5 °F -17.3 °F -4.5 °F 79% 30.39 in 10.0 mi West 12.7 mph - N/A   Clear
1:35 AM 0.1 °F -16.9 °F -4.9 °F 79% 30.39 in 10.0 mi West 11.5 mph - N/A Snow Light Snow
1:55 AM -0.4 °F -16.7 °F -5.4 °F 79% 30.40 in 10.0 mi West 10.4 mph - N/A   Clear
2:15 AM -0.4 °F -17.6 °F -4.9 °F 81% 30.41 in 10.0 mi West 11.5 mph - N/A   Scattered Clouds
2:35 AM -0.0 °F -15.3 °F -5.3 °F 79% 30.41 in 10.0 mi West 9.2 mph - N/A   Mostly Cloudy
2:55 AM -0.6 °F -17.8 °F -5.8 °F 79% 30.41 in 10.0 mi West 11.5 mph - N/A Snow Light Snow
3:15 AM -1.3 °F -19.6 °F -6.3 °F 79% 30.40 in 10.0 mi West 12.7 mph - N/A Snow Light Snow
3:35 AM -2.4 °F -20.9 °F -7.6 °F 78% 30.40 in 10.0 mi West 12.7 mph - N/A Snow Light Snow
3:55 AM -3.3 °F -20.3 °F -8.0 °F 80% 30.39 in 10.0 mi West 10.4 mph - N/A Snow Light Snow
4:15 AM -4.0 °F -21.2 °F -8.7 °F 80% 30.39 in 10.0 mi West 10.4 mph - N/A Snow Light Snow
4:35 AM -4.2 °F -22.3 °F -9.0 °F 80% 30.39 in 10.0 mi West 11.5 mph - N/A   Clear
4:55 AM -4.4 °F -22.6 °F -9.4 °F 79% 30.39 in 10.0 mi West 11.5 mph - N/A   Clear
5:15 AM -5.6 °F -21.0 °F -10.5 °F 79% 30.40 in 10.0 mi West 8.1 mph - N/A Snow Light Snow
5:35 AM -6.2 °F -22.8 °F -11.0 °F 79% 30.39 in 10.0 mi West 9.2 mph - N/A Snow Light Snow
5:55 AM -6.7 °F -25.5 °F -11.9 °F 78% 30.39 in 10.0 mi West 11.5 mph - N/A Snow Light Snow
6:15 AM -6.9 °F -23.7 °F -12.1 °F 78% 30.39 in 10.0 mi West 9.2 mph - N/A   Scattered Clouds
6:35 AM -7.4 °F -25.4 °F -12.5 °F 79% 30.39 in 10.0 mi West 10.4 mph - N/A   Clear
6:55 AM -7.8 °F -26.8 °F -13.0 °F 78% 30.39 in 10.0 mi West 11.5 mph - N/A   Clear
7:15 AM -7.6 °F -25.7 °F -12.6 °F 79% 30.39 in 10.0 mi West 10.4 mph - N/A   Clear
7:35 AM -7.8 °F -26.8 °F -12.8 °F 79% 30.40 in 10.0 mi West 11.5 mph - N/A   Scattered Clouds
7:55 AM -6.7 °F -24.5 °F -11.9 °F 78% 30.41 in 5.0 mi West 10.4 mph - N/A Snow Light Snow
8:15 AM -6.9 °F -24.8 °F -12.3 °F 77% 30.41 in 10.0 mi West 10.4 mph - N/A   Scattered Clouds
8:35 AM -6.9 °F -26.6 °F -12.5 °F 77% 30.41 in 10.0 mi West 12.7 mph - N/A   Clear
8:55 AM -6.7 °F -27.2 °F -12.3 °F 77% 30.41 in 10.0 mi West 13.8 mph 17.3 mph N/A   Scattered Clouds
9:15 AM -6.7 °F -28.7 °F -12.3 °F 77% 30.41 in 10.0 mi West 16.1 mph - N/A   Unknown
9:35 AM -6.0 °F -24.6 °F -11.7 °F 76% 30.41 in 10.0 mi West 11.5 mph - N/A   Clear
9:55 AM -5.4 °F -24.8 °F -11.7 °F 74% 30.42 in 10.0 mi West 12.7 mph - N/A   Clear
10:15 AM -5.1 °F -25.1 °F -11.2 °F 75% 30.42 in 3.0 mi West 13.8 mph - N/A Snow Light Snow
10:35 AM -4.4 °F -23.4 °F -10.7 °F 74% 30.43 in 5.0 mi West 12.7 mph 18.4 mph N/A Snow Light Snow
10:55 AM -3.6 °F -23.3 °F -10.3 °F 73% 30.43 in 2.5 mi West 13.8 mph - N/A Snow Light Snow
11:15 AM -2.9 °F -20.8 °F -9.4 °F 74% 30.42 in 7.0 mi West 11.5 mph - N/A Snow Light Snow
11:35 AM -2.2 °F -23.5 °F -9.4 °F 71% 30.42 in 7.0 mi West 17.3 mph - N/A   Clear
11:55 AM -1.8 °F -21.7 °F -9.0 °F 71% 30.41 in 4.0 mi West 15.0 mph - N/A Snow Light Snow
12:15 PM -1.3 °F -22.3 °F -8.7 °F 71% 30.41 in 5.0 mi West 17.3 mph 23.0 mph N/A   Haze
12:35 PM -1.1 °F -22.7 °F -9.4 °F 68% 30.39 in 2.5 mi West 18.4 mph - N/A Snow Light Snow
12:55 PM -0.9 °F -21.9 °F -9.0 °F 69% 30.39 in 2.0 mi West 17.3 mph - N/A Snow Light Snow
1:15 PM -0.8 °F -21.0 °F -9.4 °F 67% 30.39 in 2.0 mi West 16.1 mph 21.9 mph N/A Snow Light Snow
1:35 PM -0.0 °F -22.4 °F -8.9 °F 66% 30.38 in 4.0 mi West 20.7 mph 26.5 mph N/A Snow Light Snow
1:55 PM 0.5 °F -20.0 °F -8.5 °F 66% 30.37 in 7.0 mi West 17.3 mph - N/A   Clear
2:15 PM 0.7 °F -20.3 °F -8.5 °F 65% 30.36 in 7.0 mi West 18.4 mph - N/A Snow Light Snow
2:35 PM 1.2 °F -17.8 °F -8.1 °F 65% 30.36 in 7.0 mi West 15.0 mph 21.9 mph N/A   Clear
2:55 PM 1.4 °F -17.6 °F -8.1 °F 64% 30.36 in 10.0 mi West 15.0 mph - N/A   Clear
3:15 PM 1.9 °F -17.5 °F -8.0 °F 63% 30.35 in 10.0 mi West 16.1 mph - N/A   Clear
3:35 PM 2.1 °F -14.4 °F -8.0 °F 63% 30.36 in 10.0 mi West 11.5 mph - N/A   Clear
3:55 PM 2.3 °F -15.7 °F -7.6 °F 63% 30.35 in 10.0 mi West 13.8 mph - N/A   Clear
4:15 PM 2.3 °F -13.4 °F -7.2 °F 64% 30.36 in 10.0 mi West 10.4 mph - N/A   Clear
4:35 PM 1.9 °F -16.9 °F -7.6 °F 64% 30.35 in 10.0 mi WSW 15.0 mph - N/A   Clear
4:55 PM 1.0 °F -14.9 °F -7.6 °F 67% 30.35 in 10.0 mi WSW 10.4 mph - N/A   Clear
5:15 PM 0.1 °F -16.9 °F -8.0 °F 69% 30.35 in 10.0 mi WSW 11.5 mph - N/A   Clear
5:35 PM -0.6 °F -18.6 °F -8.0 °F 71% 30.36 in 10.0 mi WSW 12.7 mph - N/A   Clear
5:55 PM -1.3 °F -21.7 °F -8.5 °F 72% 30.36 in 10.0 mi WSW 16.1 mph 20.7 mph N/A   Clear
6:15 PM -1.3 °F -21.7 °F -8.7 °F 71% 30.36 in 10.0 mi WSW 16.1 mph - N/A   Clear
6:35 PM -1.3 °F -21.7 °F -9.0 °F 70% 30.36 in 10.0 mi West 16.1 mph 21.9 mph N/A   Scattered Clouds
6:55 PM -1.5 °F -20.5 °F -9.4 °F 69% 30.37 in 10.0 mi WSW 13.8 mph - N/A   Scattered Clouds
7:15 PM -2.2 °F -21.5 °F -9.4 °F 71% 30.37 in 10.0 mi WSW 13.8 mph 19.6 mph N/A   Clear
7:35 PM -2.2 °F -21.5 °F -9.4 °F 71% 30.37 in 10.0 mi WSW 13.8 mph - N/A   Clear
7:55 PM -2.2 °F -21.5 °F -9.6 °F 71% 30.37 in 10.0 mi WSW 13.8 mph - N/A   Clear
8:15 PM -2.2 °F -22.9 °F -9.6 °F 71% 30.37 in 10.0 mi West 16.1 mph 20.7 mph N/A   Clear
8:35 PM -2.2 °F -22.2 °F -9.6 °F 71% 30.36 in 10.0 mi WSW 15.0 mph - N/A   Clear
8:55 PM -2.6 °F -21.9 °F -9.6 °F 72% 30.36 in 10.0 mi WSW 13.8 mph - N/A   Clear
9:15 PM -3.1 °F -20.1 °F -9.8 °F 73% 30.36 in 10.0 mi WSW 10.4 mph - N/A   Clear
9:35 PM -3.1 °F -21.0 °F -9.6 °F 74% 30.36 in 10.0 mi WSW 11.5 mph - N/A   Scattered Clouds
9:55 PM -2.4 °F -20.9 °F -9.4 °F 72% 30.36 in 10.0 mi WSW 12.7 mph - N/A   Mostly Cloudy
10:15 PM -2.2 °F -20.7 °F -8.9 °F 73% 30.36 in 10.0 mi West 12.7 mph 18.4 mph N/A   Mostly Cloudy
10:35 PM -2.0 °F -20.5 °F -8.9 °F 73% 30.37 in 10.0 mi West 12.7 mph - N/A   Overcast
10:55 PM -2.6 °F -23.3 °F -9.6 °F 72% 30.37 in 10.0 mi WSW 16.1 mph 20.7 mph N/A   Scattered Clouds
11:15 PM -3.3 °F -21.2 °F -10.1 °F 73% 30.37 in 10.0 mi West 11.5 mph - N/A   Clear
11:35 PM -3.5 °F -21.4 °F -9.9 °F 74% 30.36 in 10.0 mi West 11.5 mph - N/A   Clear
11:55 PM -3.1 °F -22.6 °F -9.4 °F 74% 30.35 in 10.0 mi WSW 13.8 mph - N/A   Scattered Clouds